When you browse on this site, cookies collect data to enhance your experience and personalize the content and advertising you see.
Visit our Privacy Policy to learn more. By continuing to use the site, you agree to this use of cookies and data.

Tiempo cada hora Yulara

Hoy, 7 Julio, Martes

Tiempo Temperatura Precipitaciones Viento Presión Humedad
00:00 +6°C° 0 mm 4 mps 724 mmHg 61%
01:00 +5°C° 0 mm 4 mps 724 mmHg 64%
02:00 +5°C° 0 mm 4 mps 724 mmHg 67%
03:00 +4°C° 0 mm 4 mps 724 mmHg 72%
04:00 +3°C° 0 mm 4 mps 724 mmHg 76%
05:00 +3°C° 0 mm 4 mps 724 mmHg 79%
06:00 +3°C° 0 mm 3 mps 724 mmHg 82%
07:00 +4°C° 0 mm 4 mps 724 mmHg 75%
08:00 +6°C° 0 mm 4 mps 725 mmHg 67%
09:00 +8°C° 0 mm 4 mps 725 mmHg 58%
10:00 +11°C° 0 mm 4 mps 725 mmHg 51%
11:00 +13°C° 0 mm 3 mps 724 mmHg 43%
12:00 +16°C° 0 mm 3 mps 724 mmHg 36%
13:00 +18°C° 0 mm 3 mps 723 mmHg 33%
14:00 +19°C° 0 mm 3 mps 722 mmHg 29%
15:00 +20°C° 0 mm 2 mps 722 mmHg 26%
16:00 +18°C° 0 mm 3 mps 722 mmHg 30%
17:00 +16°C° 0 mm 3 mps 721 mmHg 34%
18:00 +12°C° 0 mm 3 mps 721 mmHg 39%
19:00 +11°C° 0 mm 3 mps 722 mmHg 41%
20:00 +11°C° 0 mm 3 mps 722 mmHg 44%
21:00 +10°C° 0 mm 3 mps 722 mmHg 48%
22:00 +9°C° 0 mm 3 mps 722 mmHg 50%
23:00 +8°C° 0 mm 3 mps 722 mmHg 53%

Mañana, 8 Julio, Miércoles

Tiempo Temperatura Precipitaciones Viento Presión Humedad
00:00 +7°C° 0 mm 3 mps 722 mmHg 56%
01:00 +7°C° 0 mm 3 mps 722 mmHg 60%
02:00 +5°C° 0 mm 3 mps 722 mmHg 64%
03:00 +5°C° 0 mm 2 mps 722 mmHg 67%
04:00 +4°C° 0 mm 3 mps 722 mmHg 69%
05:00 +3°C° 0 mm 3 mps 722 mmHg 70%
06:00 +3°C° 0 mm 3 mps 722 mmHg 72%
07:00 +5°C° 0 mm 3 mps 722 mmHg 64%
08:00 +8°C° 0 mm 3 mps 723 mmHg 56%
09:00 +10°C° 0 mm 3 mps 723 mmHg 48%
10:00 +13°C° 0 mm 3 mps 723 mmHg 42%
11:00 +16°C° 0 mm 3 mps 722 mmHg 35%
12:00 +18°C° 0 mm 3 mps 722 mmHg 29%
13:00 +20°C° 0 mm 3 mps 721 mmHg 26%
14:00 +21°C° 0 mm 3 mps 721 mmHg 23%
15:00 +22°C° 0 mm 4 mps 720 mmHg 21%
16:00 +20°C° 0 mm 4 mps 720 mmHg 24%
17:00 +18°C° 0 mm 3 mps 720 mmHg 27%
18:00 +16°C° 0 mm 3 mps 720 mmHg 30%
19:00 +13°C° 0 mm 3 mps 720 mmHg 32%
20:00 +12°C° 0 mm 3 mps 721 mmHg 34%
21:00 +11°C° 0 mm 3 mps 721 mmHg 36%
22:00 +10°C° 0 mm 3 mps 721 mmHg 38%
23:00 +9°C° 0 mm 3 mps 721 mmHg 41%

Pasado mañana, 9 Julio, Jueves

Tiempo Temperatura Precipitaciones Viento Presión Humedad
00:00 +8°C° 0 mm 2 mps 721 mmHg 43%
01:00 +8°C° 0 mm 2 mps 720 mmHg 44%
02:00 +8°C° 0 mm 3 mps 720 mmHg 46%
03:00 +8°C° 0 mm 3 mps 720 mmHg 47%
04:00 +7°C° 0 mm 2 mps 720 mmHg 51%
05:00 +6°C° 0 mm 2 mps 720 mmHg 56%
06:00 +5°C° 0 mm 2 mps 720 mmHg 60%
07:00 +7°C° 0 mm 2 mps 721 mmHg 53%
08:00 +10°C° 0 mm 2 mps 721 mmHg 45%
09:00 +13°C° 0 mm 2 mps 722 mmHg 38%
10:00 +15°C° 0 mm 2 mps 722 mmHg 33%
11:00 +18°C° 0 mm 2 mps 721 mmHg 28%
12:00 +20°C° 0 mm 2 mps 721 mmHg 23%
13:00 +21°C° 0 mm 2 mps 721 mmHg 21%
14:00 +22°C° 0 mm 3 mps 720 mmHg 19%
15:00 +24°C° 0 mm 3 mps 719 mmHg 17%
16:00 +20°C° 0 mm 3 mps 719 mmHg 23%
17:00 +17°C° 0 mm 3 mps 719 mmHg 28%
18:00 +14°C° 0 mm 2 mps 719 mmHg 34%
19:00 +13°C° 0 mm 3 mps 720 mmHg 34%
20:00 +12°C° 0 mm 3 mps 720 mmHg 34%
21:00 +12°C° 0 mm 3 mps 720 mmHg 34%
22:00 +11°C° 0 mm 3 mps 720 mmHg 36%
23:00 +9°C° 0 mm 2 mps 720 mmHg 39%

10 Julio, Viernes

Tiempo Temperatura Precipitaciones Viento Presión Humedad
00:00 +8°C° 0 mm 2 mps 720 mmHg 42%
01:00 +7°C° 0 mm 2 mps 720 mmHg 47%
02:00 +8°C° 0 mm 1 mps 720 mmHg 51%
03:00 +7°C° 0 mm 1 mps 719 mmHg 56%
04:00 +6°C° 0 mm 1 mps 720 mmHg 58%
05:00 +5°C° 0 mm 0 mps 720 mmHg 61%
06:00 +5°C° 0 mm 0 mps 720 mmHg 63%
07:00 +9°C° 0 mm 1 mps 721 mmHg 50%
08:00 +13°C° 0 mm 1 mps 721 mmHg 37%
09:00 +16°C° 0 mm 2 mps 722 mmHg 24%
10:00 +18°C° 0 mm 2 mps 722 mmHg 23%
11:00 +21°C° 0 mm 1 mps 722 mmHg 21%
12:00 +23°C° 0 mm 1 mps 722 mmHg 19%
13:00 +23°C° 0 mm 2 mps 722 mmHg 18%
14:00 +24°C° 0 mm 3 mps 721 mmHg 17%
15:00 +25°C° 0 mm 4 mps 721 mmHg 17%
16:00 +22°C° 0 mm 4 mps 721 mmHg 22%
17:00 +20°C° 0 mm 4 mps 721 mmHg 27%
18:00 +18°C° 0 mm 4 mps 721 mmHg 32%
19:00 +15°C° 0 mm 5 mps 722 mmHg 38%
20:00 +14°C° 0 mm 5 mps 722 mmHg 44%
21:00 +13°C° 0 mm 6 mps 723 mmHg 50%
22:00 +11°C° 0 mm 6 mps 723 mmHg 51%
23:00 +10°C° 0 mm 6 mps 723 mmHg 52%

11 Julio, Sábado

Tiempo Temperatura Precipitaciones Viento Presión Humedad
00:00 +9°C° 0 mm 6 mps 723 mmHg 54%
01:00 +8°C° 0 mm 5 mps 723 mmHg 57%
02:00 +7°C° 0 mm 4 mps 722 mmHg 60%
03:00 +7°C° 0 mm 3 mps 722 mmHg 63%
04:00 +5°C° 0 mm 3 mps 722 mmHg 66%
05:00 +4°C° 0 mm 3 mps 722 mmHg 69%
06:00 +4°C° 0 mm 3 mps 723 mmHg 73%
07:00 +7°C° 0 mm 3 mps 723 mmHg 66%
08:00 +7°C° 0 mm 4 mps 724 mmHg 60%
09:00 +10°C° 0 mm 4 mps 724 mmHg 53%
10:00 +12°C° 0 mm 4 mps 724 mmHg 46%
11:00 +13°C° 0 mm 4 mps 724 mmHg 39%
12:00 +15°C° 0 mm 4 mps 723 mmHg 32%
13:00 +17°C° 0 mm 4 mps 723 mmHg 29%
14:00 +18°C° 0 mm 4 mps 722 mmHg 25%
15:00 +18°C° 0 mm 4 mps 721 mmHg 22%
16:00 +15°C° 0 mm 4 mps 721 mmHg 25%
17:00 +13°C° 0 mm 4 mps 721 mmHg 28%
18:00 +12°C° 0 mm 4 mps 722 mmHg 31%
19:00 +9°C° 0 mm 5 mps 722 mmHg 36%
20:00 +8°C° 0 mm 5 mps 723 mmHg 41%
21:00 +7°C° 0 mm 5 mps 723 mmHg 47%
22:00 +6°C° 0 mm 5 mps 723 mmHg 56%
23:00 +6°C° 0 mm 5 mps 723 mmHg 66%

12 Julio, Domingo

Tiempo Temperatura Precipitaciones Viento Presión Humedad
00:00 +5°C° 0 mm 5 mps 723 mmHg 75%
01:00 +3°C° 0 mm 5 mps 723 mmHg 78%
02:00 +4°C° 0 mm 4 mps 723 mmHg 82%
03:00 +3°C° 0 mm 4 mps 723 mmHg 85%
04:00 +3°C° 0 mm 4 mps 723 mmHg 85%
05:00 +3°C° 0 mm 4 mps 723 mmHg 84%
06:00 +2°C° 0 mm 3 mps 723 mmHg 84%
07:00 +4°C° 0 mm 4 mps 724 mmHg 76%
08:00 +6°C° 0 mm 4 mps 724 mmHg 68%
09:00 +8°C° 0 mm 4 mps 724 mmHg 60%
10:00 +11°C° 0 mm 4 mps 724 mmHg 52%
11:00 +13°C° 0 mm 5 mps 724 mmHg 43%
12:00 +15°C° 0 mm 5 mps 723 mmHg 35%
13:00 +16°C° 0 mm 5 mps 722 mmHg 32%
14:00 +17°C° 0 mm 5 mps 722 mmHg 28%
15:00 +19°C° 0 mm 5 mps 721 mmHg 24%
16:00 +17°C° 0 mm 4 mps 721 mmHg 28%
17:00 +14°C° 0 mm 4 mps 721 mmHg 32%
18:00 +11°C° 0 mm 3 mps 721 mmHg 36%
19:00 +11°C° 0 mm 3 mps 722 mmHg 39%
20:00 +10°C° 0 mm 4 mps 722 mmHg 43%
21:00 +8°C° 0 mm 4 mps 723 mmHg 46%
22:00 +7°C° 0 mm 4 mps 723 mmHg 50%
23:00 +6°C° 0 mm 4 mps 723 mmHg 54%
Mostrar más